Skip Page Navigation
NASA JPL Caltech
NASA Logo - Jet Propulsion Laboratory + View the NASA Portal
+ Near-Earth Object (NEO) Program
Search JPL
JPL Home Earth Solar System Stars & Galaxies Technology
JPL Solar System Dynamics
BODIES ORBITS EPHEMERIDES TOOLS PHYSICAL DATA DISCOVERY FAQ SITE MAP
JPL Small-Body Database Browser
Search: [ help ]  
14993 (1997 UC15)
Classification: Main-belt Asteroid          SPK-ID: 2014993
Ephemeris | Orbit Diagram | Orbital Elements | Physical Parameters | Discovery Circumstances | Close-Approach Data ]

[ show orbit diagram ]
Orbital Elements at Epoch 2457400.5 (2016-Jan-13.0) TDB
Reference: JPL 14 (heliocentric ecliptic J2000)
 Element Value Uncertainty (1-sigma)   Units 
e .1987614411920067 6.9574e-08  
a 3.123395778057671 2.789e-08 au
q 2.5025851317979 2.2316e-07 au
i 1.085762964390487 6.5815e-06 deg
node 124.2795258511134 0.00037225 deg
peri 253.1478597089982 0.00037271 deg
M 127.2868622983155 1.5704e-05 deg
tp 2456687.614082804025
(2014-Jan-30.11408280)
8.6815e-05 JED
period 2016.22481343817
5.52
2.7006e-05
7.394e-08
d
yr
n .1785515174699737 2.3915e-09 deg/d
Q 3.744206424317443 3.3434e-08 au
  Orbit Determination Parameters
   # obs. used (total)      883  
   data-arc span      14434 days (39.52 yr)  
   first obs. used      1975-11-09  
   last obs. used      2015-05-17  
   planetary ephem.      DE431  
   SB-pert. ephem.      SB431-BIG16  
   condition code      0  
   fit RMS      .53931  
   data source      ORB  
   producer      Otto Matic  
   solution date      2015-Jun-04 16:22:14  

Additional Information
 Earth MOID = 1.50295 au 
 Jupiter MOID = 1.71286 au 
 T_jup = 3.184 
[ show covariance matrix ]

Ephemeris | Orbit Diagram | Orbital Elements | Physical Parameters | Discovery Circumstances | Close-Approach Data ]

Physical Parameter Table
Parameter Symbol Value Units Sigma Reference Notes
absolute magnitude H 13.6 mag n/a MPO272711  

14993 (1997 UC15)          Discovered 1997-Oct-26 by Shimizu, Y., Urata, T. at Nachi-Katsuura
Reference: 20000523/Numbers.arcLast Updated: 2004-04-19

[ show close-approach data ]
Alternate Designations
 1997 UC15 = 1975 VS9 = 1986 VP6 
Ephemeris | Orbit Diagram | Orbital Elements | Physical Parameters | Discovery Circumstances | Close-Approach Data ]
ABOUT SSD CREDITS/AWARDS PRIVACY/COPYRIGHT GLOSSARY LINKS
FirstGov 2016-Feb-08 14:20 UT
(server date/time)  
NASA Home Page
Site Manager:   Ryan S. Park
Webmaster  Alan B. Chamberlin